Tracking 19792 objects as of 16-Jul-2019
HD Live streaming from Space Station
objects crossing your sky now

EKRAN 1

Track EKRAN 1 now!
EKRAN 1 is classified as:


NORAD ID: 9503
Int'l Code: 1976-107A
Perigee: 35,522.9 km
Apogee: 36,063.3 km
Inclination: 9.8 °
Period: 1,436.1 minutes
Semi major axis: 42164 km
RCS: 3.5481 m2 (large)
Launch date: October 26, 1976
Source: Commonwealth of Independent States (former USSR) (CIS)
Launch site: TYURATAM MISSILE AND SPACE COMPLEX (TTMTR)
aabbcc
Your satellite tracking list
Your tracking list is empty




NASA's NSSDC Master Catalog

Two Line Element Set (TLE):
1  9503U 76107A   19196.49433091 -.00000287 +00000-0 +00000-0 0  9995
2  9503 009.7518 304.9579 0064086 110.8215 152.7681 01.00274085173152
Source of the keplerian elements: AFSPC